カタログに戻る

STARLINK-2420

運用中通信VLEO
NORAD 47831·PAYLOAD·🇺🇸 United States

打ち上げ Mar 11, 2021 から Cape Canaveral Space Force Station

Loading…

次のパス (今後24時間)

TLE

最新Source: CelesTrak SupGP

元期: Sep 15, 2026, 01:45 UTC

1 47831C 21018AW  26258.07340278 -.00005352  00000+0 -17209-3 0  2585
2 47831  53.1578  81.3488 0001162  85.3850 254.1817 15.31706906    12

AllMySatでSTARLINK-2420をリアルタイム追跡

Download on the App Store